Wind_Speed
20 21 21 20 18 18 17 16 16 13 14 8 13 12 13 13 11 10 11 12 15 9 11 9 10 10 9 8 8 9 11 11 11 10 8 5 10 7 8 9 9 8 5
21 19 20 19 18 17 16 15 14 15 16 16 15 15 15 14 13 13 11 11 12 12 12 11 12 12 13 13 11 11 11 12 13 12 9 11 12 12 10 12 8 7 8
20 19 19 19 19 19 18 17 18 17 17 17 17 17 16 16 15 15 14 15 14 13 13 14 13 14 15 15 15 15 15 15 15 15 12 11 6 14 13 8 11 12 9
26 24 25 22 22 20 18 18 19 18 19 19 19 19 19 18 18 17 17 17 18 17 16 16 16 17 18 19 18 17 17 19 18 17 17 16 14 17 15 12 12 11 16
28 25 27 23 24 23 22 20 20 21 22 21 21 21 22 20 22 22 21 21 20 20 21 21 20 21 21 20 21 20 19 21 21 21 19 17 18 18 18 15 14 15 15
33 35 27 20 26 24 25 24 22 23 25 26 26 26 26 29 29 26 25 22 23 26 25 21 21 23 23 22 23 23 22 22 22 22 21 20 20 20 20 19 18 17 18
38 29 31 33 22 28 28 28 27 28 28 28 28 29 28 32 33 33 26 24 23 24 28 27 25 23 25 24 24 25 27 25 24 23 23 23 23 23 24 24 22 24 21
43 45 45 43 26 35 32 32 30 33 34 27 32 30 30 30 37 30 24 24 26 28 28 28 33 30 28 27 29 27 23 26 28 28 27 26 28 30 30 27 28 26 24
17 28 34 40 28 18 27 31 32 29 30 32 28 29 31 28 24 19 22 27 26 26 28 32 26 31 32 30 29 30 30 28 28 28 30 31 32 33 36 34 31 33 32
12 7 6 12 8 12 15 19 19 23 32 20 22 27 30 27 26 29 33 33 36 33 29 28 32 31 32 35 38 37 35 35 34 36 36 35 35 38 39 40 40 39 36
8 11 12 11 13 15 15 16 18 18 19 21 21 23 30 28 29 26 29 30 39 39 36 36 41 39 38 37 37 38 43 44 42 46 45 42 40 41 39 39 42 47 44
13 14 17 18 21 21 21 22 22 25 21 21 24 26 25 24 24 29 36 33 34 39 38 37 40 44 44 44 44 42 40 34 30 37 38 36 37 36 36 36 37 38 40
19 19 19 20 21 23 22 23 23 24 26 28 26 26 26 26 27 27 20 22 21 18 20 22 26 27 30 33 34 33 31 28 32 28 33 33 29 29 31 35 40 41 43
25 24 25 24 24 25 26 27 26 28 28 27 28 27 27 27 25 25 26 27 26 27 28 30 29 29 28 28 28 30 30 35 37 36 34 33 36 37 35 36 40 42 47
26 24 24 26 26 28 29 30 30 30 30 31 32 31 32 32 30 31 34 36 36 38 38 39 37 37 35 35 34 36 39 40 43 46 46 45 44 43 45 44 47 47 44
28 26 25 26 28 30 31 31 32 33 32 31 31 34 35 35 38 39 39 39 42 43 43 44 45 45 45 45 46 46 47 48 49 51 52 53 55 55 54 55 57 59 60
32 32 31 31 30 31 32 32 33 35 37 37 38 36 36 36 37 39 41 41 43 46 49 50 51 53 52 50 52 54 54 54 55 56 57 58 58 59 61 61 62 62 63
32 32 33 33 35 36 36 36 37 37 39 39 40 41 40 40 41 40 41 41 42 42 43 45 46 48 48 49 50 51 53 56 57 58 58 58 57 57 57 57 59 59 59
27 27 30 33 35 36 37 37 37 35 35 36 36 36 36 37 39 39 40 42 43 42 44 46 47 48 48 50 50 51 51 51 51 52 51 51 54 54 53 53 55 55 57
25 28 24 24 25 26 26 25 25 27 28 30 32 36 37 39 41 42 43 44 43 43 43 43 42 43 44 45 46 48 48 50 50 50 50 51 51 52 51 52 54 55 56
16 16 16 17 18 21 24 26 28 29 31 34 35 37 39 42 44 46 48 50 52 50 49 49 50 50 49 49 49 49 48 49 50 50 51 52 53 52 53 52 52 51 52
17 18 20 21 23 24 25 26 27 28 29 30 30 33 35 36 38 39 42 44 44 43 43 43 42 42 43 43 43 42 44 43 43 44 45 44 45 45 45 46 47 48 48
21 22 21 22 25 26 26 27 27 28 30 31 33 33 34 37 39 40 40 42 43 43 42 42 40 39 38 37 37 38 38 38 36 35 36 38 40 41 43 45 45 47 47
21 23 25 25 24 29 28 29 30 31 32 33 35 37 37 38 37 40 42 42 42 43 43 42 41 39 39 39 37 36 36 36 37 37 39 40 42 44 45 45 45 46 46
24 26 27 29 28 29 33 32 32 33 34 34 35 38 39 40 40 42 42 42 42 43 42 41 42 41 41 41 39 38 39 40 43 43 43 43 44 44 44 44 44 44 44
29 30 30 32 33 33 33 34 35 36 37 37 36 37 39 39 39 42 42 42 40 42 42 42 40 41 40 39 40 40 44 44 42 42 43 42 42 41 40 39 36 35 35
Wind_Direction
216 215 217 220 220 226 230 221 224 224 233 238 243 248 249 249 252 256 259 264 281 298 283 287 290 301 304 302 294 305 308 312 311 327 345 349 318 21 325 356 27 27 28
224 221 218 217 219 221 228 235 236 238 239 240 246 248 248 252 256 257 256 259 265 276 281 288 293 295 296 294 292 285 285 292 297 301 319 315 333 335 310 341 351 360 345
219 229 228 226 221 220 224 227 233 234 237 243 246 250 252 254 255 259 260 267 269 268 274 281 283 291 292 292 289 290 290 285 283 288 294 291 282 279 291 309 318 322 312
213 224 225 227 229 222 219 228 237 241 243 244 247 247 250 255 258 260 263 268 272 274 275 273 278 283 288 289 287 286 282 284 284 283 284 290 289 288 292 288 291 297 298
238 217 221 225 229 233 238 232 238 247 247 249 252 255 254 254 254 257 260 267 271 275 275 276 279 281 282 284 286 286 283 279 279 280 284 286 286 284 284 286 287 288 296
232 231 229 217 209 230 237 239 237 243 248 249 252 256 260 263 259 259 259 261 267 267 269 276 279 283 281 282 287 284 280 277 280 279 277 276 280 280 280 283 283 267 263
239 238 243 235 228 239 238 243 248 251 252 254 257 256 264 262 261 263 265 271 267 268 271 272 273 279 278 277 283 289 279 277 273 272 273 273 272 270 271 275 276 276 275
244 242 249 245 219 234 247 256 252 249 254 257 258 266 261 279 258 261 270 265 262 264 268 274 272 271 271 276 279 281 276 271 274 273 272 273 279 275 271 266 267 265 264
228 226 238 244 233 238 252 246 256 245 254 255 256 265 275 276 274 266 270 260 265 266 267 264 281 267 266 272 272 272 278 277 276 274 272 280 283 277 266 268 266 268 268
236 265 213 219 286 220 246 266 259 256 254 257 268 268 281 284 294 276 268 266 266 261 266 275 271 268 267 266 268 270 270 269 273 271 275 274 273 277 280 269 264 266 267
277 305 263 281 287 280 291 292 296 289 278 271 276 274 277 276 277 265 265 273 268 268 263 269 273 272 270 268 271 267 267 269 275 276 278 271 268 272 271 272 265 266 270
255 248 252 255 253 253 258 260 266 269 274 293 285 280 278 276 278 264 271 266 266 264 267 273 272 272 274 271 267 273 275 275 277 280 276 268 268 264 265 262 263 264 266
252 258 256 259 260 262 262 266 268 272 273 269 277 282 275 275 282 268 266 265 276 271 262 266 274 277 282 272 265 265 263 263 260 271 273 263 262 263 266 268 265 266 267
253 254 257 260 260 262 267 268 266 269 268 271 272 272 270 274 268 262 253 261 254 254 257 262 262 264 266 264 260 263 261 259 259 264 273 267 267 269 274 272 264 260 261
253 257 260 260 260 256 257 263 265 268 270 271 272 271 271 270 270 268 262 262 262 260 264 263 265 262 261 260 259 259 258 259 263 269 273 273 272 270 270 273 266 268 263
253 253 253 256 258 261 265 267 269 273 273 272 270 272 271 270 272 273 271 269 266 268 271 270 271 270 269 269 269 268 269 270 269 269 271 273 275 275 274 274 276 279 282
259 260 262 264 263 264 263 262 265 270 272 276 279 280 278 276 275 274 274 275 274 272 271 271 271 272 275 274 274 274 274 275 274 275 277 276 276 278 279 279 279 280 280
260 261 261 261 263 264 265 266 270 271 270 271 275 278 280 282 283 282 281 278 277 277 276 275 274 275 276 275 276 276 275 274 274 274 274 275 277 278 279 280 281 283 283
254 253 255 258 262 267 271 275 277 278 280 282 283 283 284 283 282 282 282 282 281 280 279 279 279 279 278 278 278 277 277 276 276 277 278 278 278 279 280 281 280 280 280
264 262 267 265 265 268 269 270 272 274 276 279 283 283 282 283 283 283 283 283 282 281 280 280 279 278 278 278 278 278 278 277 278 279 279 280 280 281 282 281 281 281 282
245 243 245 247 255 261 267 273 277 280 282 286 288 288 289 289 288 287 286 285 282 281 281 282 282 282 282 281 280 280 281 283 281 282 284 285 285 286 286 286 288 288 288
250 254 257 260 262 267 272 275 279 282 285 287 289 291 292 292 292 293 294 294 294 294 293 292 291 289 288 287 287 287 288 288 287 288 288 287 286 286 285 286 286 287 287
264 263 257 265 269 271 273 276 281 284 287 290 293 294 292 295 296 297 296 295 294 293 293 292 292 290 288 285 282 281 280 279 280 282 287 289 290 288 287 286 286 286 285
267 267 269 268 268 272 273 277 282 286 291 294 294 296 297 295 292 294 294 293 291 289 289 290 290 289 285 283 283 282 279 279 283 288 292 293 290 288 288 289 290 289 289
272 274 276 277 277 273 277 278 279 283 288 290 289 292 294 295 295 294 294 294 293 292 290 287 286 285 285 286 286 283 280 281 287 292 291 291 290 291 291 292 291 291 290
275 274 274 276 279 280 280 284 286 283 286 289 290 292 292 291 290 290 291 291 290 290 291 289 287 285 285 285 284 283 284 285 286 287 288 290 291 291 291 291 294 294 295
Height
5909 5911 5913 5914 5916 5916 5918 5922 5922 5920 5922 5924 5926 5927 5929 5931 5932 5933 5934 5935 5931 5933 5938 5938 5938 5937 5937 5939 5939 5938 5935 5934 5933 5933 5936 5936 5931 5934 5932 5930 5927 5924 5926
5907 5910 5912 5913 5914 5915 5915 5917 5919 5920 5922 5924 5924 5926 5928 5929 5930 5930 5931 5933 5934 5935 5935 5935 5936 5936 5936 5936 5937 5937 5937 5935 5934 5933 5934 5935 5931 5930 5930 5931 5928 5928 5928
5902 5908 5910 5911 5912 5913 5914 5916 5918 5920 5920 5921 5922 5923 5925 5925 5926 5928 5928 5929 5930 5931 5933 5933 5933 5934 5933 5933 5933 5933 5933 5933 5933 5933 5934 5933 5933 5935 5933 5933 5928 5927 5927
5893 5895 5899 5903 5906 5908 5908 5911 5915 5916 5917 5918 5919 5920 5921 5922 5922 5924 5925 5926 5926 5927 5928 5929 5930 5930 5931 5930 5931 5931 5930 5928 5929 5930 5930 5930 5929 5928 5928 5928 5927 5925 5925
5872 5885 5882 5895 5900 5902 5906 5905 5908 5912 5912 5913 5915 5916 5916 5918 5917 5918 5920 5921 5921 5922 5923 5924 5925 5925 5925 5926 5926 5926 5927 5926 5924 5923 5924 5925 5924 5925 5924 5925 5925 5924 5924
5875 5881 5880 5886 5887 5895 5899 5902 5903 5905 5908 5909 5909 5910 5912 5913 5912 5912 5914 5915 5915 5916 5917 5918 5919 5920 5920 5920 5920 5920 5920 5920 5921 5921 5920 5920 5920 5921 5919 5920 5920 5919 5920
5876 5881 5881 5884 5890 5890 5894 5896 5898 5900 5902 5902 5903 5905 5907 5906 5907 5907 5909 5910 5910 5911 5911 5912 5913 5914 5914 5915 5914 5914 5913 5913 5914 5914 5914 5915 5915 5915 5914 5913 5913 5913 5913
5873 5877 5878 5878 5880 5884 5887 5889 5890 5893 5895 5897 5898 5899 5900 5897 5898 5901 5903 5903 5903 5904 5905 5906 5905 5908 5907 5909 5907 5908 5907 5906 5907 5908 5908 5908 5908 5908 5907 5907 5906 5906 5908
5866 5867 5870 5875 5873 5878 5881 5882 5882 5884 5887 5889 5889 5891 5892 5892 5894 5894 5895 5894 5897 5897 5898 5897 5897 5898 5899 5899 5899 5900 5900 5899 5898 5898 5900 5901 5900 5899 5900 5900 5899 5898 5900
5859 5861 5863 5864 5861 5866 5865 5868 5871 5875 5879 5880 5882 5884 5883 5883 5885 5886 5887 5887 5888 5888 5890 5889 5888 5889 5889 5890 5890 5890 5890 5890 5890 5889 5890 5891 5890 5888 5889 5889 5889 5889 5891
5855 5856 5859 5862 5864 5864 5866 5867 5869 5870 5873 5874 5875 5877 5877 5877 5876 5876 5878 5878 5878 5879 5881 5880 5878 5880 5881 5879 5879 5880 5880 5880 5880 5880 5879 5879 5878 5879 5879 5879 5878 5878 5879
5851 5854 5856 5857 5860 5861 5863 5864 5866 5866 5867 5868 5868 5869 5869 5869 5868 5867 5868 5869 5868 5870 5871 5870 5869 5869 5870 5870 5870 5869 5868 5870 5870 5868 5866 5865 5867 5868 5868 5868 5867 5866 5867
5848 5850 5852 5853 5855 5857 5857 5858 5859 5861 5862 5862 5862 5862 5862 5862 5862 5863 5861 5861 5862 5861 5863 5862 5862 5860 5859 5859 5859 5860 5860 5861 5860 5858 5856 5856 5857 5856 5855 5855 5855 5854 5852
5843 5844 5845 5846 5848 5849 5850 5851 5852 5854 5855 5855 5855 5855 5855 5854 5854 5855 5855 5855 5854 5853 5853 5854 5853 5852 5852 5851 5852 5852 5852 5851 5849 5847 5846 5845 5847 5847 5846 5844 5843 5842 5839
5834 5835 5837 5839 5841 5843 5844 5844 5845 5846 5846 5846 5847 5847 5848 5847 5847 5847 5848 5847 5847 5846 5845 5846 5844 5844 5843 5843 5842 5842 5841 5840 5839 5837 5835 5835 5835 5834 5834 5831 5830 5828 5827
5827 5828 5830 5832 5834 5834 5835 5836 5837 5837 5838 5838 5839 5839 5839 5839 5838 5838 5838 5837 5837 5837 5836 5836 5836 5835 5834 5834 5832 5830 5829 5829 5828 5827 5825 5824 5823 5822 5820 5818 5815 5814 5812
5818 5820 5821 5823 5825 5826 5827 5828 5828 5829 5828 5829 5828 5828 5828 5829 5829 5828 5827 5827 5826 5825 5824 5824 5823 5822 5821 5820 5819 5818 5817 5815 5814 5813 5812 5810 5808 5806 5805 5803 5800 5798 5795
5811 5812 5814 5815 5815 5817 5818 5819 5819 5819 5819 5820 5820 5820 5818 5817 5817 5816 5816 5815 5814 5813 5811 5811 5809 5807 5806 5805 5804 5803 5801 5801 5798 5797 5796 5794 5792 5790 5788 5786 5783 5781 5779
5801 5803 5805 5806 5807 5808 5809 5810 5810 5811 5810 5810 5809 5808 5807 5806 5805 5804 5803 5802 5800 5799 5797 5796 5795 5793 5792 5790 5789 5787 5786 5784 5782 5781 5779 5777 5775 5774 5771 5770 5766 5765 5762
5794 5795 5797 5799 5801 5801 5801 5802 5802 5802 5802 5801 5800 5798 5798 5796 5795 5793 5791 5789 5788 5787 5784 5783 5782 5779 5778 5776 5775 5773 5771 5769 5768 5766 5763 5761 5759 5758 5756 5753 5750 5750 5746
5787 5788 5791 5792 5793 5794 5795 5795 5794 5793 5792 5791 5790 5788 5787 5784 5783 5782 5780 5777 5775 5773 5770 5770 5767 5765 5764 5762 5760 5759 5758 5754 5753 5751 5748 5746 5745 5742 5740 5738 5736 5734 5731
5783 5784 5785 5787 5787 5787 5787 5786 5785 5784 5783 5782 5781 5777 5775 5773 5772 5769 5766 5763 5761 5758 5756 5755 5753 5751 5750 5748 5746 5744 5743 5741 5739 5737 5734 5732 5730 5728 5726 5724 5721 5719 5717
5778 5779 5780 5780 5779 5779 5779 5778 5777 5775 5773 5771 5769 5769 5767 5763 5759 5756 5754 5751 5749 5746 5744 5742 5740 5739 5737 5735 5733 5731 5730 5727 5725 5723 5721 5720 5717 5715 5713 5711 5708 5705 5704
5772 5772 5771 5772 5773 5770 5770 5769 5767 5765 5763 5761 5759 5756 5755 5752 5751 5746 5743 5740 5739 5737 5734 5730 5728 5727 5725 5723 5722 5719 5717 5715 5713 5711 5710 5708 5705 5701 5699 5696 5694 5690 5688
5765 5765 5764 5762 5763 5763 5760 5760 5758 5756 5754 5752 5749 5746 5744 5741 5738 5734 5732 5729 5726 5723 5722 5720 5717 5716 5713 5710 5711 5708 5705 5703 5701 5698 5696 5693 5691 5688 5685 5682 5679 5676 5673
5757 5755 5755 5754 5753 5752 5751 5749 5747 5746 5743 5741 5739 5735 5732 5731 5728 5723 5721 5718 5716 5712 5709 5707 5705 5702 5701 5699 5696 5695 5691 5689 5687 5685 5683 5681 5678 5675 5672 5669 5667 5663 5660